Datum;Stunden;Zählung;Temperatur (°C);Min. Temperatur (°C);Max. Temperatur (°C);Windstärke (km/h);Regen (mm);Schnee (mm);Wetter
01.01.2014;00:00:00;1;6;-;-;19;;;Regen
01.01.2014;01:00:00;2;5;-;-;20;;;Regen
01.01.2014;02:00:00;1;5;-;-;19;;;Regen
01.01.2014;03:00:00;2;6;-;-;20;;;wolkig
01.01.2014;04:00:00;0;6;-;-;17;;;wolkig
01.01.2014;05:00:00;3;6;-;-;19;;;wolkig
01.01.2014;06:00:00;0;6;-;-;19;;;teilweise bewölkt
01.01.2014;07:00:00;0;5;-;-;17;;;teilweise bewölkt
01.01.2014;08:00:00;2;4;-;-;15;;;teilweise bewölkt
01.01.2014;09:00:00;2;5;-;-;17;;;Klarer Himmel
01.01.2014;10:00:00;3;7;-;-;24;;;Klarer Himmel
01.01.2014;11:00:00;12;8;-;-;24;;;Klarer Himmel
01.01.2014;12:00:00;11;9;-;-;26;;;wolkig
01.01.2014;13:00:00;13;9;-;-;28;;;wolkig
01.01.2014;14:00:00;19;9;-;-;32;;;teilweise bewölkt
01.01.2014;15:00:00;12;8;-;-;22;;;wolkig
01.01.2014;16:00:00;6;8;-;-;26;;;wolkig
01.01.2014;17:00:00;2;8;-;-;24;;;Regen
01.01.2014;18:00:00;6;8;-;-;32;;;Regen
01.01.2014;19:00:00;2;8;-;-;24;;;Regen
01.01.2014;20:00:00;4;8;-;-;28;;;Klarer Himmel
01.01.2014;21:00:00;0;9;-;-;30;;;Regen
01.01.2014;22:00:00;3;9;-;-;26;;;Regen
01.01.2014;23:00:00;1;9;-;-;26;;;wolkig
02.01.2014;00:00:00;0;9;-;-;28;;;Regen
02.01.2014;01:00:00;1;9;-;-;28;;;Regen
02.01.2014;02:00:00;0;10;-;-;35;;;Regen
02.01.2014;03:00:00;0;10;-;-;35;;;Regen
02.01.2014;04:00:00;2;10;-;-;30;;;Regen
02.01.2014;05:00:00;7;10;-;-;30;;;Regen
02.01.2014;06:00:00;8;10;-;-;32;;;wolkig
02.01.2014;07:00:00;9;10;-;-;26;;;Regen
02.01.2014;08:00:00;9;10;-;-;22;;;Regen
02.01.2014;09:00:00;10;10;-;-;20;;;wolkig
02.01.2014;10:00:00;17;10;-;-;20;;;Regen
02.01.2014;11:00:00;8;10;-;-;30;;;Regen
02.01.2014;12:00:00;11;10;-;-;28;;;wolkig
02.01.2014;13:00:00;8;10;-;-;19;;;wolkig
02.01.2014;14:00:00;17;9;-;-;22;;;teilweise bewölkt
02.01.2014;15:00:00;21;10;-;-;19;;;teilweise bewölkt
02.01.2014;16:00:00;30;9;-;-;9;;;Regen
02.01.2014;17:00:00;7;7;-;-;17;;;teilweise bewölkt
02.01.2014;18:00:00;12;8;-;-;15;;;Klarer Himmel
02.01.2014;19:00:00;1;8;-;-;20;;;Klarer Himmel
02.01.2014;20:00:00;0;8;-;-;17;;;teilweise bewölkt
02.01.2014;21:00:00;2;7;-;-;19;;;Klarer Himmel
02.01.2014;22:00:00;2;6;-;-;15;;;Klarer Himmel
02.01.2014;23:00:00;0;7;-;-;22;;;Klarer Himmel
03.01.2014;00:00:00;0;7;-;-;20;;;Klarer Himmel
03.01.2014;01:00:00;0;7;-;-;24;;;Klarer Himmel
03.01.2014;02:00:00;0;7;-;-;24;;;Klarer Himmel
03.01.2014;03:00:00;0;7;-;-;20;;;Klarer Himmel
03.01.2014;04:00:00;0;7;-;-;22;;;wolkig
03.01.2014;05:00:00;6;7;-;-;28;;;Klarer Himmel
03.01.2014;06:00:00;4;8;-;-;28;;;wolkig
03.01.2014;07:00:00;7;9;-;-;32;;;wolkig
03.01.2014;08:00:00;16;9;-;-;28;;;wolkig
03.01.2014;09:00:00;9;8;-;-;26;;;Regen
03.01.2014;10:00:00;12;9;-;-;22;;;wolkig
03.01.2014;11:00:00;15;11;-;-;28;;;wolkig
03.01.2014;12:00:00;21;12;-;-;26;;;wolkig
03.01.2014;13:00:00;17;13;-;-;26;;;wolkig
03.01.2014;14:00:00;35;13;-;-;28;;;wolkig
03.01.2014;15:00:00;13;13;-;-;24;;;wolkig
03.01.2014;16:00:00;14;12;-;-;22;;;teilweise bewölkt
03.01.2014;17:00:00;10;12;-;-;26;;;wolkig
03.01.2014;18:00:00;6;12;-;-;28;;;wolkig
03.01.2014;19:00:00;5;7;-;-;26;;;Regen
03.01.2014;20:00:00;1;7;-;-;15;;;Klarer Himmel
03.01.2014;21:00:00;2;9;-;-;28;;;Klarer Himmel
03.01.2014;22:00:00;1;8;-;-;39;;;Regen
03.01.2014;23:00:00;1;7;-;-;22;;;teilweise bewölkt
04.01.2014;00:00:00;1;8;-;-;26;;;Klarer Himmel
04.01.2014;01:00:00;1;8;-;-;24;;;Klarer Himmel
04.01.2014;02:00:00;2;7;-;-;19;;;Klarer Himmel
04.01.2014;03:00:00;1;7;-;-;20;;;Klarer Himmel
04.01.2014;04:00:00;1;7;-;-;22;;;Klarer Himmel
04.01.2014;05:00:00;2;7;-;-;19;;;Klarer Himmel
04.01.2014;06:00:00;1;6;-;-;15;;;Klarer Himmel
04.01.2014;07:00:00;3;7;-;-;20;;;Klarer Himmel
04.01.2014;08:00:00;6;7;-;-;20;;;Klarer Himmel
04.01.2014;09:00:00;9;7;-;-;19;;;Klarer Himmel
04.01.2014;10:00:00;28;8;-;-;22;;;Klarer Himmel
04.01.2014;11:00:00;26;8;-;-;26;;;Klarer Himmel
04.01.2014;12:00:00;25;9;-;-;28;;;Klarer Himmel
04.01.2014;13:00:00;10;9;-;-;26;;;Klarer Himmel
04.01.2014;14:00:00;14;10;-;-;32;;;Klarer Himmel
04.01.2014;15:00:00;4;10;-;-;30;;;Klarer Himmel
04.01.2014;16:00:00;6;9;-;-;26;;;Klarer Himmel
04.01.2014;17:00:00;7;9;-;-;22;;;wolkig
04.01.2014;18:00:00;4;9;-;-;22;;;Regen
04.01.2014;19:00:00;8;8;-;-;22;;;Klarer Himmel
04.01.2014;20:00:00;4;7;-;-;20;;;Klarer Himmel
04.01.2014;21:00:00;0;8;-;-;19;;;Klarer Himmel
04.01.2014;22:00:00;1;7;-;-;17;;;Klarer Himmel
04.01.2014;23:00:00;0;8;-;-;20;;;Klarer Himmel
05.01.2014;00:00:00;0;8;-;-;20;;;wolkig
05.01.2014;01:00:00;2;9;-;-;15;;;wolkig
05.01.2014;02:00:00;0;8;-;-;17;;;Regen
05.01.2014;03:00:00;0;8;-;-;15;;;Regen
05.01.2014;04:00:00;0;8;-;-;20;;;Regen
05.01.2014;05:00:00;0;7;-;-;20;;;wolkig
05.01.2014;06:00:00;0;7;-;-;19;;;teilweise bewölkt
05.01.2014;07:00:00;1;6;-;-;15;;;Klarer Himmel
05.01.2014;08:00:00;6;4;-;-;15;;;teilweise bewölkt
05.01.2014;09:00:00;3;5;-;-;15;;;teilweise bewölkt
05.01.2014;10:00:00;14;6;-;-;17;;;teilweise bewölkt
05.01.2014;11:00:00;23;7;-;-;19;;;teilweise bewölkt
05.01.2014;12:00:00;23;8;-;-;20;;;teilweise bewölkt
05.01.2014;13:00:00;21;8;-;-;20;;;teilweise bewölkt
05.01.2014;14:00:00;24;8;-;-;19;;;teilweise bewölkt
05.01.2014;15:00:00;16;7;-;-;15;;;wolkig
05.01.2014;16:00:00;12;7;-;-;20;;;wolkig
05.01.2014;17:00:00;8;7;-;-;17;;;wolkig
05.01.2014;18:00:00;8;6;-;-;24;;;teilweise bewölkt
05.01.2014;19:00:00;2;6;-;-;22;;;Klarer Himmel
05.01.2014;20:00:00;4;6;-;-;26;;;Klarer Himmel
05.01.2014;21:00:00;1;6;-;-;22;;;Klarer Himmel
05.01.2014;22:00:00;2;5;-;-;19;;;Klarer Himmel
05.01.2014;23:00:00;1;5;-;-;22;;;Klarer Himmel
06.01.2014;00:00:00;0;6;-;-;26;;;Klarer Himmel
06.01.2014;01:00:00;0;6;-;-;28;;;teilweise bewölkt
06.01.2014;02:00:00;0;7;-;-;33;;;Klarer Himmel
06.01.2014;03:00:00;0;7;-;-;28;;;wolkig
06.01.2014;04:00:00;1;7;-;-;30;;;wolkig
06.01.2014;05:00:00;14;8;-;-;28;;;wolkig
06.01.2014;06:00:00;17;9;-;-;32;;;wolkig
06.01.2014;07:00:00;18;8;-;-;28;;;Regen
06.01.2014;08:00:00;14;9;-;-;30;;;Regen
06.01.2014;09:00:00;12;9;-;-;26;;;wolkig
06.01.2014;10:00:00;13;10;-;-;24;;;wolkig
06.01.2014;11:00:00;14;10;-;-;26;;;wolkig
06.01.2014;12:00:00;15;11;-;-;24;;;wolkig
06.01.2014;13:00:00;8;12;-;-;26;;;wolkig
06.01.2014;14:00:00;20;12;-;-;22;;;wolkig
06.01.2014;15:00:00;19;13;-;-;26;;;Regen
06.01.2014;16:00:00;16;13;-;-;26;;;wolkig
06.01.2014;17:00:00;17;12;-;-;30;;;wolkig
06.01.2014;18:00:00;9;12;-;-;24;;;Regen
06.01.2014;19:00:00;2;11;-;-;24;;;Regen
06.01.2014;20:00:00;2;12;-;-;32;;;Regen
06.01.2014;21:00:00;2;12;-;-;24;;;wolkig
06.01.2014;22:00:00;1;12;-;-;17;;;wolkig
06.01.2014;23:00:00;2;11;-;-;32;;;Regen
07.01.2014;00:00:00;0;11;-;-;24;;;teilweise bewölkt
07.01.2014;01:00:00;0;11;-;-;19;;;teilweise bewölkt
07.01.2014;02:00:00;0;11;-;-;28;;;teilweise bewölkt
07.01.2014;03:00:00;0;10;-;-;24;;;teilweise bewölkt
07.01.2014;04:00:00;2;11;-;-;22;;;wolkig
07.01.2014;05:00:00;12;11;-;-;24;;;wolkig
07.01.2014;06:00:00;15;10;-;-;20;;;teilweise bewölkt
07.01.2014;07:00:00;13;10;-;-;22;;;wolkig
07.01.2014;08:00:00;24;10;-;-;24;;;teilweise bewölkt
07.01.2014;09:00:00;20;10;-;-;26;;;teilweise bewölkt
07.01.2014;10:00:00;22;11;-;-;28;;;wolkig
07.01.2014;11:00:00;20;12;-;-;26;;;wolkig
07.01.2014;12:00:00;34;13;-;-;24;;;wolkig
07.01.2014;13:00:00;23;13;-;-;26;;;wolkig
07.01.2014;14:00:00;39;13;-;-;22;;;wolkig
07.01.2014;15:00:00;33;13;-;-;24;;;wolkig
07.01.2014;16:00:00;29;13;-;-;26;;;wolkig
07.01.2014;17:00:00;23;12;-;-;17;;;wolkig
07.01.2014;18:00:00;13;13;-;-;22;;;Regen
07.01.2014;19:00:00;6;12;-;-;26;;;Klarer Himmel
07.01.2014;20:00:00;6;11;-;-;22;;;Klarer Himmel
07.01.2014;21:00:00;4;10;-;-;17;;;Klarer Himmel
07.01.2014;22:00:00;0;10;-;-;19;;;Klarer Himmel
07.01.2014;23:00:00;1;11;-;-;15;;;wolkig
08.01.2014;00:00:00;0;11;-;-;15;;;Klarer Himmel
08.01.2014;01:00:00;0;11;-;-;20;;;Klarer Himmel
08.01.2014;02:00:00;1;11;-;-;19;;;wolkig
08.01.2014;03:00:00;0;11;-;-;22;;;Regen
08.01.2014;04:00:00;1;12;-;-;32;;;wolkig
08.01.2014;05:00:00;5;11;-;-;37;;;Regen
08.01.2014;06:00:00;13;10;-;-;24;;;teilweise bewölkt
08.01.2014;07:00:00;156;9;-;-;20;;;teilweise bewölkt
08.01.2014;08:00:00;24;8;-;-;17;;;teilweise bewölkt
08.01.2014;09:00:00;25;9;-;-;19;;;teilweise bewölkt
08.01.2014;10:00:00;17;10;-;-;20;;;teilweise bewölkt
08.01.2014;11:00:00;35;11;-;-;24;;;teilweise bewölkt
08.01.2014;12:00:00;28;11;-;-;26;;;wolkig
08.01.2014;13:00:00;29;11;-;-;17;;;wolkig
08.01.2014;14:00:00;34;12;-;-;22;;;wolkig
08.01.2014;15:00:00;100;10;-;-;19;;;wolkig
08.01.2014;16:00:00;37;8;-;-;11;;;wolkig
08.01.2014;17:00:00;28;8;-;-;15;;;Klarer Himmel
08.01.2014;18:00:00;16;9;-;-;11;;;Klarer Himmel
08.01.2014;19:00:00;10;9;-;-;11;;;Klarer Himmel
08.01.2014;20:00:00;10;8;-;-;15;;;Klarer Himmel
08.01.2014;21:00:00;4;8;-;-;15;;;Klarer Himmel
08.01.2014;22:00:00;0;8;-;-;17;;;Klarer Himmel
08.01.2014;23:00:00;1;9;-;-;20;;;Klarer Himmel
09.01.2014;00:00:00;0;9;-;-;20;;;Klarer Himmel
09.01.2014;01:00:00;0;10;-;-;22;;;wolkig
09.01.2014;02:00:00;0;10;-;-;19;;;Regen
09.01.2014;03:00:00;0;10;-;-;24;;;Regen
09.01.2014;04:00:00;1;10;-;-;20;;;Regen
09.01.2014;05:00:00;9;10;-;-;22;;;Klarer Himmel
09.01.2014;06:00:00;15;10;-;-;30;;;Klarer Himmel
09.01.2014;07:00:00;163;10;-;-;24;;;Klarer Himmel
09.01.2014;08:00:00;36;11;-;-;24;;;Klarer Himmel
09.01.2014;09:00:00;41;12;-;-;24;;;wolkig
09.01.2014;10:00:00;29;12;-;-;22;;;wolkig
09.01.2014;11:00:00;25;12;-;-;33;;;Regen
09.01.2014;12:00:00;29;12;-;-;35;;;wolkig
09.01.2014;13:00:00;21;12;-;-;41;;;wolkig
09.01.2014;14:00:00;26;12;-;-;41;;;wolkig
09.01.2014;15:00:00;71;12;-;-;41;;;wolkig
09.01.2014;16:00:00;23;11;-;-;30;;;Regen
09.01.2014;17:00:00;22;10;-;-;39;;;Regen
09.01.2014;18:00:00;13;8;-;-;30;;;teilweise bewölkt
09.01.2014;19:00:00;8;7;-;-;32;;;Regen
09.01.2014;20:00:00;2;7;-;-;26;;;wolkig
09.01.2014;21:00:00;4;7;-;-;19;;;wolkig
09.01.2014;22:00:00;1;7;-;-;19;;;Regen
09.01.2014;23:00:00;0;7;-;-;22;;;Regen
10.01.2014;00:00:00;0;7;-;-;20;;;Regen
10.01.2014;01:00:00;2;6;-;-;20;;;wolkig
10.01.2014;02:00:00;0;6;-;-;24;;;wolkig
10.01.2014;03:00:00;1;5;-;-;19;;;teilweise bewölkt
10.01.2014;04:00:00;2;5;-;-;20;;;teilweise bewölkt
10.01.2014;05:00:00;12;4;-;-;19;;;teilweise bewölkt
10.01.2014;06:00:00;11;4;-;-;17;;;Klarer Himmel
10.01.2014;07:00:00;174;3;-;-;11;;;teilweise bewölkt
10.01.2014;08:00:00;34;3;-;-;15;;;teilweise bewölkt
10.01.2014;09:00:00;28;4;-;-;13;;;teilweise bewölkt
10.01.2014;10:00:00;28;6;-;-;19;;;teilweise bewölkt
10.01.2014;11:00:00;46;8;-;-;24;;;teilweise bewölkt
10.01.2014;12:00:00;38;9;-;-;20;;;teilweise bewölkt
10.01.2014;13:00:00;30;9;-;-;17;;;teilweise bewölkt
10.01.2014;14:00:00;52;9;-;-;20;;;teilweise bewölkt
10.01.2014;15:00:00;68;8;-;-;19;;;teilweise bewölkt
10.01.2014;16:00:00;28;7;-;-;13;;;teilweise bewölkt
10.01.2014;17:00:00;29;5;-;-;15;;;teilweise bewölkt
10.01.2014;18:00:00;4;5;-;-;13;;;teilweise bewölkt
10.01.2014;19:00:00;9;4;-;-;15;;;teilweise bewölkt
10.01.2014;20:00:00;7;5;-;-;19;;;wolkig
10.01.2014;21:00:00;3;4;-;-;15;;;wolkig
10.01.2014;22:00:00;4;4;-;-;11;;;wolkig
10.01.2014;23:00:00;0;4;-;-;9;;;Klarer Himmel
11.01.2014;00:00:00;2;3;-;-;9;;;Klarer Himmel
11.01.2014;01:00:00;1;2;-;-;13;;;Klarer Himmel
11.01.2014;02:00:00;0;2;-;-;11;;;Klarer Himmel
11.01.2014;03:00:00;0;2;-;-;17;;;Klarer Himmel
11.01.2014;04:00:00;0;2;-;-;15;;;Klarer Himmel
11.01.2014;05:00:00;4;2;-;-;17;;;Klarer Himmel
11.01.2014;06:00:00;2;2;-;-;19;;;Klarer Himmel
11.01.2014;07:00:00;3;2;-;-;15;;;Klarer Himmel
11.01.2014;08:00:00;9;3;-;-;17;;;Klarer Himmel
11.01.2014;09:00:00;3;4;-;-;20;;;Klarer Himmel
11.01.2014;10:00:00;14;5;-;-;13;;;teilweise bewölkt
11.01.2014;11:00:00;25;7;-;-;19;;;teilweise bewölkt
11.01.2014;12:00:00;17;9;-;-;22;;;teilweise bewölkt
11.01.2014;13:00:00;15;8;-;-;22;;;Regen
11.01.2014;14:00:00;11;7;-;-;28;;;Regen
11.01.2014;15:00:00;6;7;-;-;26;;;wolkig
11.01.2014;16:00:00;6;7;-;-;24;;;teilweise bewölkt
11.01.2014;17:00:00;3;6;-;-;9;;;teilweise bewölkt
11.01.2014;18:00:00;4;4;-;-;9;;;teilweise bewölkt
11.01.2014;19:00:00;3;4;-;-;13;;;teilweise bewölkt
11.01.2014;20:00:00;5;4;-;-;9;;;teilweise bewölkt
11.01.2014;21:00:00;5;4;-;-;15;;;Klarer Himmel
11.01.2014;22:00:00;2;3;-;-;6;;;Klarer Himmel
11.01.2014;23:00:00;2;2;-;-;9;;;teilweise bewölkt
12.01.2014;00:00:00;0;2;-;-;9;;;teilweise bewölkt
12.01.2014;01:00:00;0;1;-;-;7;;;teilweise bewölkt
12.01.2014;02:00:00;1;0;-;-;6;;;Klarer Himmel
12.01.2014;03:00:00;3;0;-;-;6;;;wolkig
12.01.2014;04:00:00;0;0;-;-;7;;;teilweise bewölkt
12.01.2014;05:00:00;1;0;-;-;9;;;Klarer Himmel
12.01.2014;06:00:00;1;0;-;-;9;;;Nebel
12.01.2014;07:00:00;0;0;-;-;7;;;teilweise bewölkt
12.01.2014;08:00:00;5;0;-;-;6;;;Nebel
12.01.2014;09:00:00;8;1;-;-;9;;;teilweise bewölkt
12.01.2014;10:00:00;14;3;-;-;7;;;Klarer Himmel
12.01.2014;11:00:00;14;5;-;-;13;;;Klarer Himmel
12.01.2014;12:00:00;26;6;-;-;11;;;Klarer Himmel
12.01.2014;13:00:00;11;7;-;-;13;;;Klarer Himmel
12.01.2014;14:00:00;21;7;-;-;19;;;Klarer Himmel
12.01.2014;15:00:00;28;7;-;-;15;;;Klarer Himmel
12.01.2014;16:00:00;20;6;-;-;15;;;Klarer Himmel
12.01.2014;17:00:00;15;4;-;-;13;;;Klarer Himmel
12.01.2014;18:00:00;7;4;-;-;15;;;Klarer Himmel
12.01.2014;19:00:00;1;4;-;-;19;;;Klarer Himmel
12.01.2014;20:00:00;7;4;-;-;19;;;Klarer Himmel
12.01.2014;21:00:00;0;4;-;-;26;;;Klarer Himmel
12.01.2014;22:00:00;0;3;-;-;24;;;Klarer Himmel
12.01.2014;23:00:00;0;4;-;-;28;;;Klarer Himmel
13.01.2014;00:00:00;1;4;-;-;24;;;Klarer Himmel
13.01.2014;01:00:00;0;4;-;-;24;;;Klarer Himmel
13.01.2014;02:00:00;1;4;-;-;28;;;Klarer Himmel
13.01.2014;03:00:00;0;4;-;-;24;;;Klarer Himmel
13.01.2014;04:00:00;2;4;-;-;28;;;wolkig
13.01.2014;05:00:00;12;4;-;-;26;;;wolkig
13.01.2014;06:00:00;18;5;-;-;24;;;wolkig
13.01.2014;07:00:00;166;5;-;-;24;;;wolkig
13.01.2014;08:00:00;35;6;-;-;17;;;wolkig
13.01.2014;09:00:00;34;7;-;-;19;;;wolkig
13.01.2014;10:00:00;21;7;-;-;13;;;wolkig
13.01.2014;11:00:00;39;8;-;-;15;;;wolkig
13.01.2014;12:00:00;22;9;-;-;15;;;wolkig
13.01.2014;13:00:00;36;9;-;-;20;;;wolkig
13.01.2014;14:00:00;32;9;-;-;13;;;wolkig
13.01.2014;15:00:00;84;9;-;-;11;;;wolkig
13.01.2014;16:00:00;30;8;-;-;13;;;teilweise bewölkt
13.01.2014;17:00:00;25;8;-;-;13;;;teilweise bewölkt
13.01.2014;18:00:00;16;7;-;-;15;;;teilweise bewölkt
13.01.2014;19:00:00;8;6;-;-;13;;;teilweise bewölkt
13.01.2014;20:00:00;7;5;-;-;15;;;teilweise bewölkt
13.01.2014;21:00:00;6;6;-;-;15;;;Klarer Himmel
13.01.2014;22:00:00;1;6;-;-;17;;;Klarer Himmel
13.01.2014;23:00:00;0;7;-;-;15;;;wolkig
14.01.2014;00:00:00;0;7;-;-;19;;;wolkig
14.01.2014;01:00:00;0;7;-;-;17;;;Klarer Himmel
14.01.2014;02:00:00;0;7;-;-;19;;;wolkig
14.01.2014;03:00:00;0;6;-;-;19;;;teilweise bewölkt
14.01.2014;04:00:00;2;6;-;-;22;;;Klarer Himmel
14.01.2014;05:00:00;6;6;-;-;17;;;Klarer Himmel
14.01.2014;06:00:00;14;5;-;-;17;;;Klarer Himmel
14.01.2014;07:00:00;178;6;-;-;20;;;wolkig
14.01.2014;08:00:00;30;5;-;-;15;;;teilweise bewölkt
14.01.2014;09:00:00;36;6;-;-;17;;;teilweise bewölkt
14.01.2014;10:00:00;14;6;-;-;20;;;teilweise bewölkt
14.01.2014;11:00:00;45;9;-;-;19;;;teilweise bewölkt
14.01.2014;12:00:00;22;9;-;-;20;;;teilweise bewölkt
14.01.2014;13:00:00;36;9;-;-;15;;;teilweise bewölkt
14.01.2014;14:00:00;40;9;-;-;19;;;wolkig
14.01.2014;15:00:00;59;8;-;-;19;;;teilweise bewölkt
14.01.2014;16:00:00;35;9;-;-;17;;;wolkig
14.01.2014;17:00:00;22;8;-;-;15;;;wolkig
14.01.2014;18:00:00;15;7;-;-;9;;;wolkig
14.01.2014;19:00:00;16;7;-;-;11;;;teilweise bewölkt
14.01.2014;20:00:00;6;5;-;-;11;;;teilweise bewölkt
14.01.2014;21:00:00;6;6;-;-;11;;;wolkig
14.01.2014;22:00:00;2;6;-;-;15;;;wolkig
14.01.2014;23:00:00;0;6;-;-;13;;;wolkig
15.01.2014;00:00:00;0;5;-;-;13;;;wolkig
15.01.2014;01:00:00;0;5;-;-;13;;;wolkig
15.01.2014;02:00:00;0;4;-;-;13;;;wolkig
15.01.2014;03:00:00;2;4;-;-;13;;;wolkig
15.01.2014;04:00:00;1;4;-;-;15;;;wolkig
15.01.2014;05:00:00;11;3;-;-;15;;;teilweise bewölkt
15.01.2014;06:00:00;16;4;-;-;15;;;wolkig
15.01.2014;07:00:00;166;4;-;-;20;;;wolkig
15.01.2014;08:00:00;28;4;-;-;17;;;wolkig
15.01.2014;09:00:00;38;4;-;-;9;;;wolkig
15.01.2014;10:00:00;28;5;-;-;19;;;wolkig
15.01.2014;11:00:00;36;5;-;-;20;;;Regen
15.01.2014;12:00:00;28;5;-;-;22;;;wolkig
15.01.2014;13:00:00;23;6;-;-;26;;;Regen
15.01.2014;14:00:00;28;5;-;-;26;;;Regen
15.01.2014;15:00:00;107;5;-;-;26;;;Regen
15.01.2014;16:00:00;30;5;-;-;22;;;Regen
15.01.2014;17:00:00;27;4;-;-;22;;;Regen
15.01.2014;18:00:00;11;5;-;-;24;;;wolkig
15.01.2014;19:00:00;3;5;-;-;20;;;wolkig
15.01.2014;20:00:00;6;5;-;-;22;;;Regen
15.01.2014;21:00:00;0;5;-;-;26;;;Regen
15.01.2014;22:00:00;1;5;-;-;24;;;Regen
15.01.2014;23:00:00;1;5;-;-;20;;;Regen
16.01.2014;00:00:00;0;5;-;-;22;;;Regen
16.01.2014;01:00:00;0;6;-;-;20;;;wolkig
16.01.2014;02:00:00;0;6;-;-;22;;;wolkig
16.01.2014;03:00:00;0;6;-;-;24;;;Regen
16.01.2014;04:00:00;1;6;-;-;24;;;wolkig
16.01.2014;05:00:00;10;7;-;-;22;;;wolkig
16.01.2014;06:00:00;11;7;-;-;20;;;wolkig
16.01.2014;07:00:00;149;7;-;-;24;;;wolkig
16.01.2014;08:00:00;36;7;-;-;24;;;wolkig
16.01.2014;09:00:00;34;8;-;-;22;;;wolkig
16.01.2014;10:00:00;12;8;-;-;28;;;wolkig
16.01.2014;11:00:00;27;8;-;-;28;;;wolkig
16.01.2014;12:00:00;32;9;-;-;28;;;wolkig
16.01.2014;13:00:00;29;8;-;-;26;;;Regen
16.01.2014;14:00:00;26;7;-;-;24;;;Regen
16.01.2014;15:00:00;83;7;-;-;22;;;Regen
16.01.2014;16:00:00;25;8;-;-;19;;;wolkig
16.01.2014;17:00:00;12;8;-;-;24;;;Regen
16.01.2014;18:00:00;7;8;-;-;20;;;wolkig
16.01.2014;19:00:00;8;8;-;-;17;;;teilweise bewölkt
16.01.2014;20:00:00;3;8;-;-;22;;;teilweise bewölkt
16.01.2014;21:00:00;4;8;-;-;20;;;teilweise bewölkt
16.01.2014;22:00:00;2;7;-;-;22;;;Klarer Himmel
16.01.2014;23:00:00;0;8;-;-;20;;;Regen
17.01.2014;00:00:00;0;8;-;-;22;;;wolkig
17.01.2014;01:00:00;0;8;-;-;20;;;wolkig
17.01.2014;02:00:00;0;8;-;-;24;;;teilweise bewölkt
17.01.2014;03:00:00;0;8;-;-;22;;;wolkig
17.01.2014;04:00:00;2;8;-;-;24;;;wolkig
17.01.2014;05:00:00;6;8;-;-;24;;;wolkig
17.01.2014;06:00:00;16;9;-;-;24;;;wolkig
17.01.2014;07:00:00;179;9;-;-;26;;;wolkig
17.01.2014;08:00:00;32;9;-;-;28;;;wolkig
17.01.2014;09:00:00;19;9;-;-;26;;;wolkig
17.01.2014;10:00:00;33;9;-;-;26;;;wolkig
17.01.2014;11:00:00;33;9;-;-;22;;;wolkig
17.01.2014;12:00:00;38;10;-;-;22;;;teilweise bewölkt
17.01.2014;13:00:00;26;10;-;-;28;;;wolkig
17.01.2014;14:00:00;59;10;-;-;22;;;teilweise bewölkt
17.01.2014;15:00:00;52;10;-;-;22;;;Klarer Himmel
17.01.2014;16:00:00;25;10;-;-;24;;;teilweise bewölkt
17.01.2014;17:00:00;19;10;-;-;22;;;wolkig
17.01.2014;18:00:00;9;10;-;-;22;;;wolkig
17.01.2014;19:00:00;4;10;-;-;22;;;wolkig
17.01.2014;20:00:00;12;10;-;-;24;;;Klarer Himmel
17.01.2014;21:00:00;2;10;-;-;24;;;Regen
17.01.2014;22:00:00;0;9;-;-;24;;;wolkig
17.01.2014;23:00:00;2;9;-;-;20;;;Regen
18.01.2014;00:00:00;1;9;-;-;19;;;wolkig
18.01.2014;01:00:00;0;9;-;-;20;;;wolkig
18.01.2014;02:00:00;0;9;-;-;19;;;Klarer Himmel
18.01.2014;03:00:00;3;8;-;-;20;;;Klarer Himmel
18.01.2014;04:00:00;0;7;-;-;22;;;Klarer Himmel
18.01.2014;05:00:00;2;7;-;-;22;;;Klarer Himmel
18.01.2014;06:00:00;1;6;-;-;19;;;Klarer Himmel
18.01.2014;07:00:00;4;6;-;-;20;;;Klarer Himmel
18.01.2014;08:00:00;9;6;-;-;24;;;Klarer Himmel
18.01.2014;09:00:00;9;7;-;-;26;;;Klarer Himmel
18.01.2014;10:00:00;18;8;-;-;22;;;Klarer Himmel
18.01.2014;11:00:00;30;9;-;-;28;;;Klarer Himmel
18.01.2014;12:00:00;18;10;-;-;26;;;Klarer Himmel
18.01.2014;13:00:00;30;10;-;-;22;;;Klarer Himmel
18.01.2014;14:00:00;15;10;-;-;28;;;Klarer Himmel
18.01.2014;15:00:00;20;10;-;-;19;;;Klarer Himmel
18.01.2014;16:00:00;18;9;-;-;13;;;Klarer Himmel
18.01.2014;17:00:00;12;9;-;-;17;;;Klarer Himmel
18.01.2014;18:00:00;12;8;-;-;15;;;Klarer Himmel
18.01.2014;19:00:00;8;7;-;-;11;;;Klarer Himmel
18.01.2014;20:00:00;1;6;-;-;11;;;Klarer Himmel
18.01.2014;21:00:00;5;6;-;-;15;;;Klarer Himmel
18.01.2014;22:00:00;4;6;-;-;13;;;Klarer Himmel
18.01.2014;23:00:00;1;5;-;-;13;;;Klarer Himmel
19.01.2014;00:00:00;0;5;-;-;13;;;Klarer Himmel
19.01.2014;01:00:00;2;5;-;-;13;;;Klarer Himmel
19.01.2014;02:00:00;0;5;-;-;13;;;Klarer Himmel
19.01.2014;03:00:00;0;5;-;-;13;;;Klarer Himmel
19.01.2014;04:00:00;0;5;-;-;7;;;Klarer Himmel
19.01.2014;05:00:00;1;5;-;-;6;;;Klarer Himmel
19.01.2014;06:00:00;0;4;-;-;11;;;Klarer Himmel
19.01.2014;07:00:00;0;4;-;-;11;;;Klarer Himmel
19.01.2014;08:00:00;9;5;-;-;13;;;Klarer Himmel
19.01.2014;09:00:00;9;5;-;-;19;;;Klarer Himmel
19.01.2014;10:00:00;14;6;-;-;22;;;Klarer Himmel
19.01.2014;11:00:00;17;7;-;-;20;;;Klarer Himmel
19.01.2014;12:00:00;13;7;-;-;19;;;Klarer Himmel
19.01.2014;13:00:00;8;8;-;-;13;;;Klarer Himmel
19.01.2014;14:00:00;28;8;-;-;11;;;Klarer Himmel
19.01.2014;15:00:00;18;8;-;-;11;;;wolkig
19.01.2014;16:00:00;18;7;-;-;7;;;Klarer Himmel
19.01.2014;17:00:00;16;7;-;-;4;;;wolkig
19.01.2014;18:00:00;9;5;-;-;7;;;Klarer Himmel
19.01.2014;19:00:00;3;4;-;-;6;;;Klarer Himmel
19.01.2014;20:00:00;1;4;-;-;4;;;Klarer Himmel
19.01.2014;21:00:00;2;3;-;-;2;;;wolkig
19.01.2014;22:00:00;1;3;-;-;4;;;wolkig
19.01.2014;23:00:00;0;4;-;-;4;;;wolkig
20.01.2014;00:00:00;4;5;-;-;6;;;wolkig
20.01.2014;01:00:00;0;5;-;-;7;;;wolkig
20.01.2014;02:00:00;0;5;-;-;9;;;wolkig
20.01.2014;03:00:00;0;5;-;-;7;;;wolkig
20.01.2014;04:00:00;2;5;-;-;7;;;wolkig
20.01.2014;05:00:00;7;5;-;-;9;;;wolkig
20.01.2014;06:00:00;9;5;-;-;11;;;wolkig
20.01.2014;07:00:00;169;5;-;-;11;;;wolkig
20.01.2014;08:00:00;41;5;-;-;11;;;wolkig
20.01.2014;09:00:00;33;4;-;-;15;;;wolkig
20.01.2014;10:00:00;23;4;-;-;11;;;wolkig
20.01.2014;11:00:00;48;4;-;-;13;;;wolkig
20.01.2014;12:00:00;18;4;-;-;9;;;wolkig
20.01.2014;13:00:00;30;4;-;-;9;;;wolkig
20.01.2014;14:00:00;22;3;-;-;9;;;wolkig
20.01.2014;15:00:00;100;3;-;-;9;;;wolkig
20.01.2014;16:00:00;27;3;-;-;11;;;wolkig
20.01.2014;17:00:00;19;3;-;-;11;;;wolkig
20.01.2014;18:00:00;18;3;-;-;9;;;wolkig
20.01.2014;19:00:00;7;3;-;-;7;;;wolkig
20.01.2014;20:00:00;4;3;-;-;6;;;Regen
20.01.2014;21:00:00;3;3;-;-;9;;;Regen
20.01.2014;22:00:00;1;2;-;-;9;;;Regen
20.01.2014;23:00:00;0;2;-;-;9;;;Regen
21.01.2014;00:00:00;0;2;-;-;9;;;Regen
21.01.2014;01:00:00;0;2;-;-;7;;;Regen
21.01.2014;02:00:00;0;2;-;-;9;;;Regen
21.01.2014;03:00:00;1;2;-;-;7;;;wolkig
21.01.2014;04:00:00;2;2;-;-;7;;;wolkig
21.01.2014;05:00:00;15;2;-;-;7;;;wolkig
21.01.2014;06:00:00;8;2;-;-;9;;;wolkig
21.01.2014;07:00:00;175;2;-;-;7;;;wolkig
21.01.2014;08:00:00;36;2;-;-;6;;;wolkig
21.01.2014;09:00:00;24;2;-;-;6;;;Regen
21.01.2014;10:00:00;17;2;-;-;4;;;wolkig
21.01.2014;11:00:00;27;3;-;-;6;;;wolkig
21.01.2014;12:00:00;21;3;-;-;6;;;wolkig
21.01.2014;13:00:00;27;3;-;-;7;;;wolkig
21.01.2014;14:00:00;54;4;-;-;7;;;wolkig
21.01.2014;15:00:00;65;4;-;-;6;;;wolkig
21.01.2014;16:00:00;29;4;-;-;6;;;Regen
21.01.2014;17:00:00;17;4;-;-;4;;;Regen
21.01.2014;18:00:00;15;4;-;-;2;;;wolkig
21.01.2014;19:00:00;5;4;-;-;7;;;wolkig
21.01.2014;20:00:00;3;4;-;-;6;;;wolkig
21.01.2014;21:00:00;1;4;-;-;9;;;wolkig
21.01.2014;22:00:00;1;5;-;-;11;;;wolkig
21.01.2014;23:00:00;0;4;-;-;15;;;wolkig
22.01.2014;00:00:00;0;4;-;-;7;;;wolkig
22.01.2014;01:00:00;0;4;-;-;7;;;wolkig
22.01.2014;02:00:00;1;4;-;-;6;;;wolkig
22.01.2014;03:00:00;0;4;-;-;2;;;wolkig
22.01.2014;04:00:00;3;3;-;-;6;;;wolkig
22.01.2014;05:00:00;9;4;-;-;6;;;wolkig
22.01.2014;06:00:00;12;4;-;-;6;;;wolkig
22.01.2014;07:00:00;157;4;-;-;13;;;wolkig
22.01.2014;08:00:00;32;4;-;-;9;;;wolkig
22.01.2014;09:00:00;31;4;-;-;15;;;wolkig
22.01.2014;10:00:00;17;5;-;-;17;;;wolkig
22.01.2014;11:00:00;49;5;-;-;17;;;wolkig
22.01.2014;12:00:00;28;6;-;-;15;;;wolkig
22.01.2014;13:00:00;23;5;-;-;19;;;wolkig
22.01.2014;14:00:00;35;6;-;-;15;;;teilweise bewölkt
22.01.2014;15:00:00;74;6;-;-;13;;;teilweise bewölkt
22.01.2014;16:00:00;42;4;-;-;9;;;teilweise bewölkt
22.01.2014;17:00:00;15;4;-;-;9;;;Klarer Himmel
22.01.2014;18:00:00;11;4;-;-;11;;;Klarer Himmel
22.01.2014;19:00:00;3;3;-;-;11;;;Klarer Himmel
22.01.2014;20:00:00;1;2;-;-;13;;;Klarer Himmel
22.01.2014;21:00:00;4;2;-;-;13;;;Klarer Himmel
22.01.2014;22:00:00;3;1;-;-;11;;;Klarer Himmel